Theta_e
296 296 295 294 293 293 293 294 294 292 292 293 293 292 292 292 292 292 292 291 291 292 292 292 292 292 292 292 293 293 293 293 293 294 295 296 297 298
294 293 292 293 293 292 292 292 292 293 291 293 292 292 292 292 292 291 290 290 290 291 291 291 291 292 292 292 292 292 292 293 293 293 294 294 295 296
292 292 291 291 291 292 292 291 292 292 291 292 292 292 292 291 289 290 290 290 290 290 290 290 291 291 291 292 291 291 292 291 291 292 292 292 293 293
292 292 291 290 291 291 291 291 291 292 292 291 291 291 290 289 290 290 290 290 290 289 289 290 290 290 291 290 290 290 290 290 291 291 291 291 292 292
290 290 290 290 290 290 290 290 290 290 290 291 290 290 290 290 289 289 289 289 288 288 288 289 289 289 289 289 289 289 289 289 290 290 290 290 290 290
289 289 289 289 288 288 289 289 289 289 290 290 290 289 289 289 289 288 288 287 287 286 286 287 287 287 287 288 287 287 287 288 289 289 290 290 290 290
290 290 290 290 289 289 289 289 289 289 290 289 289 289 289 288 287 287 287 286 285 285 285 286 286 286 286 286 286 287 288 288 289 289 289 290 290 290
289 290 290 289 289 289 289 290 290 290 290 289 289 288 287 286 286 286 287 285 285 285 285 285 285 285 285 285 286 286 287 288 289 289 289 289 289 290
290 289 289 289 289 288 288 288 289 289 289 289 288 287 287 287 287 287 286 285 285 285 285 285 285 284 285 285 285 286 287 288 287 288 288 289 289 290
290 290 289 288 288 289 288 288 288 288 288 288 287 287 287 287 286 286 285 285 284 284 283 283 283 284 284 284 284 286 287 286 287 288 288 289 289 289
290 290 289 288 288 288 288 288 288 287 286 286 286 286 285 285 284 285 284 284 283 282 282 282 283 283 284 284 284 285 286 285 286 287 287 288 288 289
289 289 289 289 289 289 288 288 286 286 286 285 284 284 284 283 284 284 283 283 283 283 283 283 283 283 284 284 284 284 284 284 285 285 286 287 288 288
289 288 288 288 288 288 288 286 286 286 285 284 284 283 283 283 283 282 282 282 283 283 283 283 283 283 284 284 283 283 283 283 284 284 285 286 286 286
288 287 287 287 288 287 286 285 285 285 284 283 282 282 282 282 282 281 281 281 281 281 281 282 283 283 283 283 283 283 283 284 284 284 285 286 285 285
288 288 288 287 286 286 285 285 285 283 283 282 282 282 281 281 281 280 281 280 280 281 281 281 281 281 282 283 283 283 284 283 284 285 285 286 286 285
287 287 286 285 285 285 284 284 283 282 282 282 281 281 280 281 280 280 281 280 280 280 281 281 281 281 282 283 283 283 283 283 284 284 285 285 285 285
287 286 285 284 284 283 283 283 282 281 282 281 280 280 280 280 280 281 280 280 280 280 280 280 281 281 282 282 282 283 283 283 284 283 283 283 284 284
287 286 284 284 283 283 282 281 281 281 281 280 280 279 279 279 280 280 280 280 280 280 280 280 281 281 281 281 282 282 282 282 281 282 283 283 284 283
286 285 284 283 283 282 281 281 281 281 281 281 279 279 279 280 279 279 279 280 280 279 280 280 280 280 279 279 280 281 281 281 282 282 282 282 282 282
284 284 283 283 282 282 281 281 281 281 281 281 279 279 278 278 279 279 279 279 279 280 280 279 279 279 278 279 279 280 279 280 280 280 281 281 281 281
284 283 283 282 282 281 281 281 281 280 281 281 279 279 278 278 278 278 279 279 280 279 279 279 279 279 279 278 278 279 279 279 279 280 280 280 280 281
283 282 282 282 281 281 281 281 280 279 280 279 278 278 278 277 277 278 278 278 279 279 279 280 279 279 278 278 278 278 279 279 279 279 280 280 280 281
282 282 281 281 280 280 280 280 278 279 278 278 278 278 277 277 277 277 277 278 278 279 280 279 278 278 278 278 279 279 278 278 279 279 279 279 280 280
Wind_Speed
15 14 12 9 10 8 7 3 3 1 2 2 7 20 24 23 24 20 22 28 21 20 19 22 23 24 26 27 26 26 27 27 27 27 27 28 28 29
13 11 9 9 7 8 5 3 2 1 2 5 24 23 24 24 22 25 25 23 24 21 22 24 26 27 27 26 26 26 27 27 27 27 27 28 29 29
12 10 8 8 10 6 4 5 5 7 9 18 18 21 20 24 23 20 22 23 23 22 25 30 28 28 28 26 26 27 27 26 27 27 28 29 27 27
11 8 9 9 6 3 6 7 9 9 11 15 19 20 23 26 24 25 23 20 19 26 28 25 26 28 27 27 28 29 27 26 24 24 25 25 24 25
9 8 7 5 4 6 7 7 9 10 12 14 20 21 24 23 26 22 24 23 24 25 25 27 28 28 27 27 28 27 25 24 22 22 25 26 26 27
8 6 5 5 7 7 7 8 9 11 13 15 19 21 22 23 22 25 22 23 27 31 29 28 26 27 29 27 26 25 25 24 25 24 24 25 25 26
6 7 5 8 6 8 8 10 11 13 15 16 19 19 18 20 21 24 22 24 28 25 26 27 30 27 28 27 26 25 25 25 26 25 23 23 22 23
5 4 5 5 6 5 7 9 12 16 17 15 18 17 19 22 23 23 21 18 14 22 28 30 24 25 28 25 24 26 25 23 22 21 24 24 23 24
6 5 4 4 6 7 12 12 12 13 16 17 19 19 23 25 26 21 19 21 22 28 26 26 23 28 27 27 28 25 21 21 25 25 24 25 25 24
5 6 5 7 6 10 14 16 17 18 17 17 19 22 24 26 23 23 23 24 24 23 22 21 25 25 27 27 28 20 17 26 23 25 25 26 25 23
4 5 8 10 9 10 14 17 19 22 20 17 20 22 20 18 21 23 19 17 20 25 24 19 21 29 24 29 22 17 24 25 26 23 27 24 24 22
6 7 8 8 9 13 16 19 20 21 20 24 23 17 20 22 18 18 23 19 19 19 13 23 20 19 16 9 24 27 25 31 24 27 23 22 20 24
9 10 10 10 14 17 16 17 16 17 19 21 18 21 22 20 19 19 20 22 21 22 23 24 22 23 11 22 22 26 25 32 30 29 21 19 23 22
11 12 15 16 17 16 16 13 15 17 17 18 21 19 19 20 23 25 22 21 21 24 28 24 21 22 21 23 22 23 29 29 27 23 20 23 23 22
14 14 13 17 17 16 14 14 14 17 18 18 15 18 21 24 24 24 24 23 24 24 23 20 23 26 23 23 25 26 29 21 22 20 29 26 25 24
13 17 18 18 13 13 13 13 14 17 18 17 21 21 23 20 24 24 22 24 24 24 23 21 24 24 26 23 25 27 24 16 29 29 27 28 28 23
16 18 21 16 14 15 13 15 17 18 17 18 20 20 20 22 24 20 22 21 19 21 23 27 28 25 24 26 25 24 25 23 24 28 28 25 25 26
16 18 19 16 16 15 15 16 21 19 18 19 21 20 22 25 20 22 20 19 19 21 23 25 26 26 23 19 16 24 24 23 29 28 27 21 23 23
16 17 18 17 16 15 18 20 22 24 21 19 21 23 23 19 24 21 20 19 19 21 21 24 24 20 9 10 23 15 25 29 26 23 22 23 24 27
14 18 18 17 17 19 20 22 24 25 22 22 20 21 22 21 21 20 20 20 20 19 20 22 22 20 16 12 22 29 21 23 24 24 24 26 26 28
18 18 16 17 19 22 24 23 24 24 24 19 25 23 22 21 21 21 22 23 24 22 20 20 26 23 25 28 17 23 27 22 19 23 27 24 23 22
17 17 18 20 22 23 24 24 22 27 20 22 24 23 23 22 22 22 23 23 23 23 24 30 33 29 26 18 20 24 24 29 31 26 22 22 20 6
17 17 19 22 22 22 23 22 27 22 28 26 24 25 24 23 24 24 24 24 24 25 24 25 27 24 23 22 23 24 27 28 27 27 29 24 21 24
Wind_Direction
98 92 88 82 75 70 74 57 90 13 304 313 351 324 329 331 328 330 323 327 334 329 326 324 324 322 321 320 319 316 313 310 307 304 302 299 297 295
98 101 90 83 68 56 26 21 28 257 248 301 312 319 321 325 325 320 328 336 336 328 326 326 323 321 319 319 319 318 315 311 311 309 308 305 299 299
101 91 84 72 53 28 349 355 333 301 276 294 307 317 320 322 331 336 331 330 326 324 325 323 321 321 320 319 321 319 315 312 309 309 306 304 299 298
103 97 74 52 51 358 343 344 322 316 310 312 316 321 322 327 327 328 330 331 320 316 321 318 315 315 313 317 318 318 317 314 314 310 304 300 297 299
102 82 67 56 18 342 340 333 329 324 320 318 318 322 323 330 328 333 332 328 323 325 321 316 317 315 314 316 317 318 318 315 312 311 309 308 306 302
76 76 53 22 350 343 343 334 327 331 332 328 322 320 322 332 331 335 334 335 328 324 321 319 319 317 316 315 315 314 314 311 311 309 307 305 305 304
69 46 15 359 7 352 336 339 336 329 323 314 312 316 323 332 336 329 326 323 323 321 323 323 318 316 318 316 317 313 312 311 310 311 313 310 305 305
56 40 14 7 340 355 340 332 328 321 317 318 315 312 323 327 324 319 314 323 316 324 325 312 313 316 322 322 318 316 314 312 312 315 319 314 308 306
24 18 11 330 352 338 339 336 331 323 319 317 320 326 323 326 319 311 311 311 305 312 313 305 317 314 322 318 318 314 312 322 322 318 317 316 312 308
7 353 345 339 342 345 341 331 325 327 327 324 322 323 321 318 318 317 316 313 311 311 314 303 317 314 316 316 319 313 312 327 324 320 319 319 317 315
356 343 342 345 348 334 329 327 322 321 324 322 319 316 314 317 318 317 322 317 313 315 323 310 319 313 318 308 315 309 314 318 321 319 321 320 317 314
8 3 358 338 327 330 328 327 323 323 326 326 324 324 319 323 318 313 315 310 309 314 321 319 312 327 320 314 320 317 314 322 319 319 318 318 322 325
5 350 335 329 327 324 322 321 320 322 320 321 320 320 319 317 314 319 319 314 306 297 310 316 310 309 284 308 312 315 317 319 325 320 325 325 323 321
349 335 325 326 321 318 321 323 321 319 320 318 319 312 314 321 326 327 327 321 313 305 312 315 301 310 310 303 300 310 313 318 317 317 323 319 323 321
330 323 315 318 315 315 323 317 317 320 319 312 309 313 320 325 325 331 331 329 325 323 326 318 309 308 302 296 299 306 311 314 316 317 317 320 317 320
316 313 317 319 314 311 313 313 314 318 312 314 318 318 323 320 321 326 317 324 320 317 327 324 325 322 306 294 294 300 301 297 305 312 315 313 313 313
316 315 324 324 314 317 313 309 313 315 314 320 319 318 318 315 312 322 320 318 311 313 317 323 335 328 315 307 296 290 292 298 310 311 312 307 309 310
307 305 314 315 310 306 308 310 312 309 313 318 318 314 312 310 308 317 317 311 307 309 311 317 325 323 322 318 305 307 314 317 312 313 316 302 306 312
302 303 303 300 300 301 306 311 314 315 309 306 317 310 312 306 312 305 311 309 307 304 307 321 324 327 322 315 316 314 312 309 313 314 312 302 295 303
301 300 300 300 304 307 309 309 312 316 304 303 318 313 309 306 305 304 304 302 299 301 309 319 319 316 306 310 307 307 314 306 311 311 310 309 301 302
304 302 300 303 307 308 309 304 300 313 303 298 316 307 308 304 303 302 301 302 305 304 297 301 310 315 309 311 298 301 311 312 305 305 305 305 305 306
300 301 301 304 307 305 305 305 310 314 297 311 309 304 305 305 300 299 302 299 297 293 288 297 313 315 310 296 295 297 302 310 314 316 301 293 285 288
301 300 300 306 307 308 309 308 314 307 307 311 307 304 305 299 300 296 295 295 294 292 286 296 303 302 295 288 292 298 300 303 307 308 306 311 294 291